Find Starlink 3107

NORAD ID: 49171 Int'l Des: 2021-082 Owner: SPXS Country: US Constellation: starlink operational
LEOCIRCULAR

实时位置

正在加载3D地球...

关于 Starlink 3107

正在加载描述...

即将过境

Passes for default location (London). Set your location on the main map for personalized predictions.

高度历史

Loading altitude history...

两行轨道根数

1 49171U 21082AT 26105.64712034 .00013620 00000-0 78836-3 0 9993
2 49171 69.9937 192.8317 0005703 232.7071 127.3576 15.12347088252880
Epoch: Apr 15, 2026 • Age: 16 hours

当前状态

高度 540.7 km
速度 7.60 km/s
星下点 51.58°N, 101°W
发射日期 Sep 14, 2021
运行时间 4.5 years
类型 internet

技术详情

分类 Payload
质量 297.00 kg
干质量 275.00 kg
总质量 297.00 kg
长度 0.20 m
直径 2.80 m
跨度 9.00 m
形状 Box + pan
制造商 SPXS
平台类型 Starlink
阶段状态 In Orbit
所有者/国家 SPXS/US

Most Searched